Weather History for Cape Girardeau, MO

Change the Weather History Date:

Thursday, January 17, 2013

  Actual Average Record
Temperature  
Mean Temperature 34 °F 33 °F  
Max Temperature 43 °F 42 °F 65 °F (1996)
Min Temperature 25 °F 24 °F -16 °F (1977)
Degree Days  
Heating Degree Days 31 32  
Month to date heating degree days 495 544  
Since 1 July heating degree days 2119 2295  
Cooling Degree Days 0 0  
Month to date cooling degree days 0 0  
Year to date cooling degree days 0 0  
Moisture  
Dew Point 26 °F    
Average Humidity 75    
Maximum Humidity 92    
Minimum Humidity 57    
Precipitation  
Precipitation 0.00 in 0.11 in 1.50 in (1969)
Month to date precipitation 2.71 1.89  
Year to date precipitation 2.71 1.89  
Sea Level Pressure  
Sea Level Pressure 30.31 in    
Wind  
Wind Speed 7 mph (North)    
Max Wind Speed 25 mph    
Max Gust Speed 33 mph    
Visibility 10 miles    
Events      
T = Trace of Precipitation, MM = Missing Value Source: NWS Daily Summary

Daily Weather History Graph

Daily Weather History Graph

Search for Another Location

Airport:

Trip Planner

Search our weather history database for the weather conditions in past years. The results will help you decide how hot, cold, wet, or windy it might be!

Date:

Astronomy

Jan. 17, 2013 Rise Set
Actual Time 7:10 AM CST 5:07 PM CST
Civil Twilight 6:42 AM CST 5:35 PM CST
Nautical Twilight 6:10 AM CST 6:07 PM CST
Astronomical Twilight 5:38 AM CST 6:38 PM CST
Moon 10:27 AM CST (1/17) 11:47 PM CST (1/17)
Length of Visible Light 10h 53m
Length of Day
9h 56m
Waxing Crescent, 38% of the Moon is Illuminated
Jan 17
Waxing Crescent
Jan 18
First Quarter
Jan 26
Full
Feb 3
Last Quarter
Feb 10
New

Hourly Weather History & Observations

Time (CST) Temp. Windchill Dew Point Humidity Pressure Visibility Wind Dir Wind Speed Gust Speed Precip Events Conditions
12:53 AM 27.0 °F - 21.9 °F 81% 30.17 in 10.0 mi Calm Calm - N/A   Clear
1:53 AM 28.0 °F - 25.0 °F 88% 30.16 in 7.0 mi Calm Calm - N/A   Scattered Clouds
2:53 AM 27.0 °F - 24.1 °F 89% 30.18 in 8.0 mi Calm Calm - N/A   Mostly Cloudy
3:53 AM 27.0 °F - 24.1 °F 89% 30.17 in 6.0 mi Calm Calm - N/A   Clear
4:53 AM 26.6 °F - 24.8 °F 93% 30.15 in 9.0 mi Calm Calm - N/A   Clear
5:53 AM 27.0 °F - 23.0 °F 85% 30.18 in 10.0 mi Calm Calm - N/A   Clear
6:53 AM 27.0 °F - 21.9 °F 81% 30.21 in 10.0 mi Calm Calm - N/A   Mostly Cloudy
7:53 AM 30.9 °F - 27.0 °F 85% 30.24 in 10.0 mi Calm Calm - N/A   Overcast
8:53 AM 36.0 °F 30.3 °F 28.0 °F 73% 30.26 in 10.0 mi North 6.9 mph - N/A   Partly Cloudy
9:53 AM 39.9 °F 31.4 °F 30.0 °F 68% 30.28 in 10.0 mi North 16.1 mph - N/A   Clear
10:53 AM 42.1 °F 34.9 °F 32.0 °F 67% 30.29 in 10.0 mi North 13.8 mph - N/A   Clear
11:45 AM 42.8 °F 34.3 °F 33.8 °F 70% 30.27 in 9.0 mi North 19.6 mph - N/A   Mostly Cloudy
11:53 AM 41.0 °F 32.2 °F 32.0 °F 70% 30.27 in 10.0 mi North 18.4 mph - N/A   Mostly Cloudy
12:53 PM 39.9 °F 30.0 °F 32.0 °F 73% 30.28 in 10.0 mi NNW 21.9 mph 28.8 mph N/A   Overcast
1:53 PM 42.1 °F 33.3 °F 32.0 °F 67% 30.29 in 10.0 mi NNW 19.6 mph 26.5 mph N/A   Overcast
2:12 PM 42.8 °F 34.0 °F 30.2 °F 61% 30.28 in 10.0 mi NNW 20.7 mph 27.6 mph N/A   Scattered Clouds
2:53 PM 42.1 °F 32.8 °F 28.9 °F 60% 30.31 in 10.0 mi North 21.9 mph 27.6 mph N/A   Clear
3:53 PM 41.0 °F 33.1 °F 28.9 °F 62% 30.35 in 10.0 mi NNW 15.0 mph - N/A   Partly Cloudy
4:53 PM 39.0 °F 34.0 °F 26.1 °F 60% 30.38 in 10.0 mi North 6.9 mph - N/A   Clear
5:53 PM 36.0 °F 29.6 °F 26.1 °F 67% 30.41 in 10.0 mi North 8.1 mph - N/A   Clear
6:53 PM 35.1 °F 29.3 °F 23.0 °F 61% 30.44 in 10.0 mi North 6.9 mph - N/A   Clear
7:53 PM 34.0 °F 29.8 °F 24.1 °F 67% 30.47 in 10.0 mi North 4.6 mph - N/A   Clear
8:53 PM 33.1 °F 27.7 °F 21.9 °F 64% 30.50 in 10.0 mi North 5.8 mph - N/A   Clear
9:53 PM 30.9 °F 25.2 °F 21.9 °F 69% 30.50 in 10.0 mi North 5.8 mph - N/A   Clear
10:53 PM 30.9 °F 27.5 °F 21.9 °F 69% 30.51 in 10.0 mi North 3.5 mph - N/A   Clear
11:53 PM 30.0 °F - 21.9 °F 72% 30.52 in 10.0 mi Calm Calm - N/A   Clear